Погода в Турткуле

Узбекистан     39°58′57″N   66°48′12″E
темп.,
°C
ветер,
м/с
пор.,
м/с
влажн.,
%
обл.,
%
осадки,
мм/ч
давл.,
гПа
погр.,
м
3 марта, ср
ср323:00+9всв354881 0.0 1025181
02:00+7ссв355394 0.0 1024123
05:00+6всв456087 0.0 1024103
08:00+5всв35680 0.0 1024132
11:00+11зюз46470 0.0 1023867
14:00+14зюз78300 0.0 10201646
17:00+14зюз67321 0.0 10191596
20:00+10зсз344412 0.0 102176
4 марта, чт
чт423:00+7всв01566 0.0 102122
02:00+6в12540 0.0 102022
05:00+6всв23520 0.0 101922
08:00+7в3356100 0.0 101950
11:00+11ю2360100 0.4 1018267
14:00+13з245492 0.9 1016736
17:00+16зюз6114596 1.4 10172014
20:00+10сз487068 0.9 1022450
5 марта, пт
пт523:00+8зсз237459 1.0 1026203
02:00+7зсз3378100 0.4 1029454
05:00+5зюз3376100 0.9 1031412
08:00+4св348154 0.0 1031330
11:00+7в676461 0.0 1029596
14:00+10в77504 0.0 1025840
17:00+10всв810532 0.0 1022647
20:00+7всв712560 0.0 1022352
6 марта, сб
сб623:00+6всв7125550 0.0 1019340
02:00+7всв61056100 0.0 1015280
05:00+6всв4858100 0.0 1013199
08:00+8всв61156100 0.0 1012265
11:00+10св3350100 0.0 1013431
14:00+7всв6976100 3.1 1012391
17:00+10в576196 3.2 1013451
20:00+8юз61275100 1.9 10151137
7 марта, вс
вс723:00+6юз101580100 1.9 1017961
02:00+5юз101584100 0.0 10181001
05:00+4зюз81186100 0.1 1019790
08:00+4зюз5887100 0.0 1020619
11:00+5зюз5781100 0.1 1020727
14:00+7зюз5769100 0.1 1019925
17:00+7з336899 0.1 1017746
20:00+5св227764 0.0 101837